TYA4525 UNNT-UNKL

Flight info

Callsign TYA4525
Flight time 1h 1m
Altitude 31000
Route OGATI A308 RISPA A366 KESED A309 ROTLI A300 RANET
Aircraft B738/M-SDE2E3FGHIRWXY/LB1

Departure

Time 2026-05-07 19:06
Airport Novosibirsk Tolmachevo Airport (UNNT)

Arrival

Time 2026-05-07 20:08
Airport Krasnoyarsk International Airport (UNKL)
Time Latitude Longitude Altitude Speed Heading
2026-05-07 18:37 55.01016 82.67052 357 ft 0 kts 169°
2026-05-07 18:56 55.01019 82.67051 357 ft 2 kts 170°
2026-05-07 18:56 55.01034 82.67047 357 ft 2 kts 171°
2026-05-07 18:57 55.01048 82.67042 357 ft 2 kts 171°
2026-05-07 18:57 55.01064 82.67039 357 ft 2 kts 171°
2026-05-07 18:57 55.01078 82.67034 357 ft 2 kts 171°
2026-05-07 18:57 55.01093 82.67030 357 ft 2 kts 171°
2026-05-07 18:58 55.01108 82.67026 357 ft 2 kts 171°
2026-05-07 18:58 55.01122 82.67022 357 ft 2 kts 171°
2026-05-07 18:58 55.01133 82.67019 357 ft 0 kts 171°
2026-05-07 18:58 55.01137 82.67017 357 ft 0 kts 170°
2026-05-07 19:01 55.01135 82.67018 357 ft 0 kts 170°
2026-05-07 19:01 55.01127 82.67020 357 ft 1 kts 170°
2026-05-07 19:02 55.01110 82.67026 357 ft 3 kts 170°
2026-05-07 19:02 55.01090 82.67049 357 ft 4 kts 108°
2026-05-07 19:02 55.01093 82.67108 357 ft 5 kts 82°
2026-05-07 19:02 55.01098 82.67176 357 ft 6 kts 82°
2026-05-07 19:03 55.01105 82.67247 359 ft 4 kts 81°
2026-05-07 19:03 55.01107 82.67299 359 ft 4 kts 89°
2026-05-07 19:03 55.01108 82.67350 360 ft 4 kts 90°
2026-05-07 19:03 55.01111 82.67423 360 ft 7 kts 76°
2026-05-07 19:04 55.01151 82.67493 360 ft 10 kts 31°
2026-05-07 19:04 55.01220 82.67565 358 ft 14 kts 31°
2026-05-07 19:04 55.01315 82.67665 357 ft 17 kts 31°
2026-05-07 19:04 55.01412 82.67765 357 ft 12 kts 31°
2026-05-07 19:05 55.01466 82.67798 357 ft 7 kts
2026-05-07 19:05 55.01492 82.67757 357 ft 5 kts 262°
2026-05-07 19:05 55.01483 82.67673 357 ft 18 kts 259°
2026-05-07 19:05 55.01419 82.66985 357 ft 95 kts 261°
2026-05-07 19:06 55.01283 82.65458 354 ft 158 kts 261°
2026-05-07 19:06 55.00980 82.61547 1495 ft 172 kts 262°
2026-05-07 19:06 55.00802 82.59478 2094 ft 178 kts 259°
2026-05-07 19:07 55.00662 82.57240 2478 ft 194 kts 261°
2026-05-07 19:07 55.00515 82.54829 2858 ft 212 kts 263°
2026-05-07 19:07 55.00690 82.52279 3385 ft 229 kts 290°
2026-05-07 19:07 55.01598 82.50106 3923 ft 248 kts 317°
2026-05-07 19:08 55.03135 82.48640 4565 ft 265 kts 342°
2026-05-07 19:08 55.04978 82.48641 5302 ft 278 kts 15°
2026-05-07 19:08 55.06495 82.50291 6031 ft 285 kts 47°
2026-05-07 19:08 55.07381 82.53352 6805 ft 288 kts 82°
2026-05-07 19:09 55.07202 82.56767 7558 ft 287 kts 115°
2026-05-07 19:09 55.06289 82.59779 8345 ft 287 kts 122°
2026-05-07 19:09 55.05373 82.62873 9088 ft 292 kts 119°
2026-05-07 19:09 55.04548 82.65870 9771 ft 296 kts 118°
2026-05-07 19:10 55.03657 82.69094 10452 ft 302 kts 119°
2026-05-07 19:10 55.02758 82.72347 10690 ft 324 kts 118°
2026-05-07 19:10 55.01780 82.75905 11019 ft 343 kts 118°
2026-05-07 19:10 55.00742 82.79696 11656 ft 352 kts 118°
2026-05-07 19:11 54.99720 82.83427 12382 ft 357 kts 118°
2026-05-07 19:11 54.98620 82.87427 13148 ft 362 kts 118°
2026-05-07 19:11 54.97539 82.91348 13891 ft 368 kts 118°
2026-05-07 19:11 54.96427 82.95380 14623 ft 373 kts 118°
2026-05-07 19:12 54.95321 82.99385 15365 ft 378 kts 118°
2026-05-07 19:12 54.94192 83.03503 16070 ft 384 kts 117°
2026-05-07 19:12 54.93253 83.07835 16772 ft 391 kts 109°
2026-05-07 19:12 54.92690 83.12443 17449 ft 398 kts 98°
2026-05-07 19:13 54.92470 83.17251 18132 ft 403 kts 95°
2026-05-07 19:13 54.92304 83.22086 18778 ft 408 kts 95°
2026-05-07 19:13 54.92104 83.27040 19396 ft 413 kts 95°
2026-05-07 19:13 54.91896 83.32018 20006 ft 418 kts 95°
2026-05-07 19:14 54.91691 83.37034 20606 ft 422 kts 95°
2026-05-07 19:14 54.91482 83.42177 21186 ft 427 kts 94°
2026-05-07 19:14 54.91270 83.47330 21752 ft 432 kts 94°
2026-05-07 19:14 54.91054 83.52503 22283 ft 437 kts 94°
2026-05-07 19:15 54.90832 83.57794 22812 ft 441 kts 94°
2026-05-07 19:15 54.90609 83.63081 23333 ft 445 kts 94°
2026-05-07 19:15 54.90384 83.68339 23829 ft 450 kts 95°
2026-05-07 19:15 54.90151 83.73704 24317 ft 454 kts 95°
2026-05-07 19:16 54.89923 83.78934 24775 ft 458 kts 94°
2026-05-07 19:16 54.89725 83.83456 25180 ft 460 kts 94°
2026-05-07 19:16 54.89514 83.88217 25566 ft 464 kts 94°
2026-05-07 19:16 54.89274 83.93569 26023 ft 467 kts 94°
2026-05-07 19:17 54.88963 84.00439 26557 ft 471 kts 94°
2026-05-07 19:17 54.88700 84.06183 27000 ft 475 kts 94°
2026-05-07 19:17 54.88437 84.11819 27432 ft 478 kts 94°
2026-05-07 19:17 54.88165 84.17634 27850 ft 481 kts 94°
2026-05-07 19:18 54.87892 84.23436 28259 ft 484 kts 94°
2026-05-07 19:18 54.87616 84.29219 28645 ft 487 kts 93°
2026-05-07 19:18 54.87333 84.35080 29294 ft 483 kts 93°
2026-05-07 19:18 54.87050 84.40862 29787 ft 483 kts 93°
2026-05-07 19:19 54.86766 84.46639 30273 ft 482 kts 93°
2026-05-07 19:19 54.86476 84.52462 30764 ft 481 kts 93°
2026-05-07 19:19 54.86189 84.58211 31031 ft 484 kts 93°
2026-05-07 19:19 54.85892 84.64098 31016 ft 487 kts 93°
2026-05-07 19:20 54.85296 84.75685 31020 ft 480 kts 94°
2026-05-07 19:20 54.84697 84.87143 31020 ft 481 kts 94°
2026-05-07 19:21 54.84080 84.98734 31020 ft 482 kts 94°
2026-05-07 19:21 54.83456 85.10245 31020 ft 481 kts 94°
2026-05-07 19:22 54.83215 85.21716 31020 ft 476 kts 81°
2026-05-07 19:22 54.83859 85.27297 31020 ft 470 kts 68°
2026-05-07 19:22 54.85137 85.32503 31021 ft 463 kts 56°
2026-05-07 19:23 54.88905 85.41285 31021 ft 451 kts 39°
2026-05-07 19:23 54.93275 85.48955 31020 ft 451 kts 39°
2026-05-07 19:24 54.97620 85.56855 31020 ft 451 kts 39°
2026-05-07 19:24 55.01927 85.64668 31020 ft 450 kts 39°
2026-05-07 19:25 55.06260 85.72555 31020 ft 451 kts 40°
2026-05-07 19:25 55.10379 85.80077 31020 ft 452 kts 40°
2026-05-07 19:26 55.14822 85.88217 31020 ft 452 kts 40°
2026-05-07 19:26 55.19107 85.96096 31020 ft 452 kts 40°
2026-05-07 19:27 55.23422 86.04057 31019 ft 450 kts 41°
2026-05-07 19:27 55.27241 86.12659 31019 ft 458 kts 53°
2026-05-07 19:28 55.29928 86.22700 31020 ft 465 kts 62°
2026-05-07 19:28 55.32508 86.33189 31020 ft 464 kts 61°
2026-05-07 19:29 55.35075 86.43559 31020 ft 464 kts 62°
2026-05-07 19:29 55.37588 86.53864 31020 ft 464 kts 61°
2026-05-07 19:30 55.40112 86.64269 31020 ft 463 kts 62°
2026-05-07 19:30 55.42626 86.74699 31020 ft 464 kts 62°
2026-05-07 19:31 55.45130 86.85152 31020 ft 462 kts 62°
2026-05-07 19:31 55.47597 86.95499 31020 ft 460 kts 62°
2026-05-07 19:32 55.50045 87.05811 31020 ft 459 kts 62°
2026-05-07 19:32 55.52450 87.15994 31020 ft 459 kts 62°
2026-05-07 19:33 55.54883 87.26347 31020 ft 457 kts 63°
2026-05-07 19:33 55.57295 87.36656 31020 ft 457 kts 63°
2026-05-07 19:34 55.59712 87.47040 31020 ft 456 kts 63°
2026-05-07 19:34 55.62107 87.57381 31020 ft 455 kts 63°
2026-05-07 19:35 55.64488 87.67704 31020 ft 454 kts 64°
2026-05-07 19:35 55.66869 87.78071 31020 ft 455 kts 64°
2026-05-07 19:36 55.69234 87.88424 31018 ft 455 kts 64°
2026-05-07 19:36 55.71595 87.98813 31017 ft 455 kts 64°
2026-05-07 19:37 55.73931 88.09146 31020 ft 453 kts 64°
2026-05-07 19:37 55.76268 88.19531 31020 ft 453 kts 64°
2026-05-07 19:38 55.78581 88.29859 31020 ft 454 kts 64°
2026-05-07 19:38 55.80905 88.40287 31020 ft 453 kts 64°
2026-05-07 19:39 55.83212 88.50689 31020 ft 453 kts 64°
2026-05-07 19:39 55.85050 88.59019 31020 ft 452 kts 64°
2026-05-07 19:40 55.87702 88.71094 31020 ft 452 kts 65°
2026-05-07 19:40 55.89977 88.81503 31020 ft 452 kts 64°
2026-05-07 19:41 55.92238 88.91908 31020 ft 450 kts 64°
2026-05-07 19:41 55.94488 89.02309 31019 ft 450 kts 64°
2026-05-07 19:42 55.96707 89.12651 31020 ft 449 kts 64°
2026-05-07 19:42 55.98925 89.23095 31020 ft 448 kts 64°
2026-05-07 19:43 56.01112 89.33424 31019 ft 447 kts 65°
2026-05-07 19:43 56.03266 89.43655 31020 ft 445 kts 65°
2026-05-07 19:44 56.05435 89.54017 31020 ft 445 kts 65°
2026-05-07 19:44 56.07592 89.64368 31019 ft 446 kts 65°
2026-05-07 19:45 56.09732 89.74689 31020 ft 446 kts 66°
2026-05-07 19:45 56.11869 89.85049 31020 ft 446 kts 65°
2026-05-07 19:46 56.14003 89.95449 31020 ft 446 kts 65°
2026-05-07 19:46 56.16136 90.05893 31020 ft 446 kts 65°
2026-05-07 19:47 56.18246 90.16281 31020 ft 446 kts 66°
2026-05-07 19:47 56.20358 90.26738 31020 ft 445 kts 66°
2026-05-07 19:48 56.21399 90.31911 30855 ft 443 kts 66°
2026-05-07 19:48 56.22436 90.37082 30359 ft 439 kts 66°
2026-05-07 19:48 56.23457 90.42183 29837 ft 437 kts 66°
2026-05-07 19:48 56.24485 90.47331 29292 ft 434 kts 66°
2026-05-07 19:49 56.25492 90.52389 28753 ft 432 kts 66°
2026-05-07 19:49 56.26398 90.57508 28205 ft 432 kts 71°
2026-05-07 19:49 56.27045 90.62746 27657 ft 433 kts 77°
2026-05-07 19:49 56.27309 90.67722 27160 ft 433 kts 84°
2026-05-07 19:50 56.27425 90.73032 26621 ft 431 kts 85°
2026-05-07 19:50 56.27555 90.78449 26074 ft 429 kts 84°
2026-05-07 19:50 56.27702 90.83767 25533 ft 427 kts 85°
2026-05-07 19:50 56.27840 90.89046 24997 ft 425 kts 85°
2026-05-07 19:51 56.27965 90.94325 24459 ft 423 kts 85°
2026-05-07 19:51 56.28086 90.99627 23918 ft 421 kts 85°
2026-05-07 19:51 56.28201 91.04842 23385 ft 419 kts 85°
2026-05-07 19:51 56.28286 91.10005 22850 ft 417 kts 88°
2026-05-07 19:52 56.28121 91.15238 22308 ft 417 kts 95°
2026-05-07 19:52 56.27727 91.20363 21773 ft 416 kts 96°
2026-05-07 19:52 56.27316 91.25513 21235 ft 414 kts 96°
2026-05-07 19:52 56.26927 91.30606 20702 ft 412 kts 96°
2026-05-07 19:53 56.26532 91.35690 20169 ft 410 kts 96°
2026-05-07 19:53 56.26130 91.40718 19639 ft 408 kts 96°
2026-05-07 19:53 56.25723 91.45737 19109 ft 406 kts 96°
2026-05-07 19:53 56.25314 91.50736 18579 ft 404 kts 96°
2026-05-07 19:54 56.24904 91.55698 18055 ft 402 kts 96°
2026-05-07 19:54 56.24512 91.60413 17553 ft 400 kts 96°
2026-05-07 19:54 56.24187 91.65276 17036 ft 397 kts 92°
2026-05-07 19:54 56.24170 91.70213 16514 ft 393 kts 84°
2026-05-07 19:55 56.24533 91.75051 15992 ft 389 kts 77°
2026-05-07 19:55 56.25083 91.79787 15472 ft 387 kts 76°
2026-05-07 19:55 56.25612 91.84447 14961 ft 385 kts 76°
2026-05-07 19:55 56.26125 91.89130 14437 ft 373 kts 76°
2026-05-07 19:56 56.26612 91.93536 13964 ft 357 kts 76°
2026-05-07 19:56 56.27100 91.97899 13497 ft 354 kts 76°
2026-05-07 19:56 56.27583 92.02232 13019 ft 353 kts 76°
2026-05-07 19:56 56.28062 92.06544 12544 ft 352 kts 77°
2026-05-07 19:57 56.28522 92.10699 12087 ft 352 kts 77°
2026-05-07 19:57 56.29000 92.15016 11612 ft 351 kts 77°
2026-05-07 19:57 56.29400 92.19319 11127 ft 349 kts 85°
2026-05-07 19:57 56.29271 92.23544 10681 ft 334 kts 96°
2026-05-07 19:58 56.28980 92.27660 10311 ft 330 kts 96°
2026-05-07 19:58 56.28727 92.31729 10108 ft 321 kts 95°
2026-05-07 19:58 56.28487 92.35603 9769 ft 310 kts 96°
2026-05-07 19:58 56.28243 92.39424 9397 ft 298 kts 96°
2026-05-07 19:59 56.28011 92.43037 9048 ft 296 kts 96°
2026-05-07 19:59 56.27773 92.46739 8671 ft 296 kts 96°
2026-05-07 19:59 56.27537 92.50395 8292 ft 296 kts 96°
2026-05-07 19:59 56.27302 92.54005 7932 ft 288 kts 96°
2026-05-07 20:00 56.27070 92.57553 7589 ft 287 kts 96°
2026-05-07 20:00 56.26854 92.60858 7266 ft 287 kts 96°
2026-05-07 20:00 56.26692 92.63309 7026 ft 286 kts 97°
2026-05-07 20:00 56.26441 92.66814 6679 ft 286 kts 102°
2026-05-07 20:01 56.25805 92.70136 6335 ft 283 kts 116°
2026-05-07 20:01 56.25021 92.73291 6003 ft 279 kts 116°
2026-05-07 20:01 56.24275 92.76404 5713 ft 267 kts 115°
2026-05-07 20:01 56.23575 92.79324 5619 ft 248 kts 115°
2026-05-07 20:02 56.22763 92.81812 5536 ft 232 kts 137°
2026-05-07 20:02 56.21505 92.83234 5420 ft 228 kts 166°
2026-05-07 20:02 56.19917 92.83454 5150 ft 219 kts 192°
2026-05-07 20:02 56.18613 92.82667 4934 ft 213 kts 207°
2026-05-07 20:03 56.17268 92.81598 4694 ft 212 kts 206°
2026-05-07 20:03 56.15935 92.80570 4465 ft 211 kts 206°
2026-05-07 20:03 56.14614 92.79546 4270 ft 205 kts 206°
2026-05-07 20:03 56.13359 92.78577 4136 ft 190 kts 206°
2026-05-07 20:04 56.12235 92.77501 3964 ft 175 kts 223°
2026-05-07 20:04 56.11596 92.75802 3830 ft 164 kts 252°
2026-05-07 20:04 56.11624 92.73802 3502 ft 163 kts 285°
2026-05-07 20:04 56.11985 92.71905 3267 ft 159 kts 283°
2026-05-07 20:05 56.12346 92.70067 3059 ft 152 kts 288°
2026-05-07 20:05 56.12748 92.68312 2858 ft 154 kts 289°
2026-05-07 20:05 56.13168 92.66544 2645 ft 154 kts 290°
2026-05-07 20:05 56.13587 92.64795 2477 ft 154 kts 291°
2026-05-07 20:06 56.14011 92.63034 2276 ft 158 kts 294°
2026-05-07 20:06 56.14444 92.61223 2067 ft 157 kts 294°
2026-05-07 20:06 56.14880 92.59435 1865 ft 156 kts 294°
2026-05-07 20:06 56.15315 92.57657 1635 ft 156 kts 293°
2026-05-07 20:07 56.15734 92.55878 1444 ft 153 kts 293°
2026-05-07 20:07 56.16139 92.54125 1233 ft 151 kts 295°
2026-05-07 20:07 56.16551 92.52441 1029 ft 147 kts 295°
2026-05-07 20:07 56.16936 92.50825 949 ft 128 kts 294°
2026-05-07 20:08 56.17207 92.49676 948 ft 75 kts 295°
2026-05-07 20:08 56.17358 92.49034 948 ft 39 kts 293°
2026-05-07 20:08 56.17464 92.48736 948 ft 23 kts 323°
2026-05-07 20:08 56.17587 92.48575 948 ft 18 kts 324°
2026-05-07 20:09 56.17664 92.48476 948 ft 10 kts 324°
2026-05-07 20:09 56.17718 92.48405 948 ft 8 kts 322°
2026-05-07 20:09 56.17755 92.48332 948 ft 7 kts 295°
2026-05-07 20:10 56.17786 92.48207 948 ft 4 kts 294°
2026-05-07 20:10 56.17800 92.48152 948 ft 5 kts 294°
2026-05-07 20:10 56.17819 92.48069 948 ft 8 kts 292°
2026-05-07 20:10 56.17845 92.47958 948 ft 9 kts 294°
2026-05-07 20:11 56.17900 92.47916 948 ft 10 kts 21°
2026-05-07 20:11 56.17973 92.47972 948 ft 7 kts 24°
2026-05-07 20:11 56.18026 92.47974 948 ft 8 kts 316°
2026-05-07 20:11 56.18054 92.47863 948 ft 9 kts 292°
2026-05-07 20:12 56.18066 92.47811 948 ft 0 kts 292°
2026-05-07 20:14 56.18064 92.47818 948 ft 2 kts 295°
2026-05-07 20:14 56.18055 92.47839 948 ft 2 kts 324°
2026-05-07 20:14 56.18042 92.47852 948 ft 2 kts 346°
2026-05-07 20:14 56.18027 92.47854 948 ft 2 kts
2026-05-07 20:15 56.18013 92.47846 948 ft 2 kts 27°
2026-05-07 20:15 56.18002 92.47837 948 ft 0 kts 21°
2026-05-07 20:15 56.18001 92.47836 948 ft 0 kts 21°